FW9437 Weather Reports


time (UTC)temp
C
wind
direction
speed
KPH
gust
KPH
rain 1hr
cm
rain 24hr
cm
rain mn
cm
humidity
%
barometer
mb
20260906021612 26 0 0.0 0.0 0.00 0.00 0.00 89 1011.9
20260906020106 26 0 0.0 0.0 0.00 0.00 0.00 88 1012.0
20260906014609 26 0 0.0 1.6 0.00 0.00 0.00 88 1012.1
20260906013100 27 0 0.0 0.0 0.00 0.00 0.00 87 1011.9
20260906011605 27 0 0.0 0.0 0.00 0.00 0.00 86 1011.7
20260906004608 28 0 0.0 0.0 0.00 0.00 0.00 85 1011.5
20260906003101 28 15 0.0 1.6 0.00 0.00 0.00 84 1011.5
20260906001611 29 14 0.0 1.6 0.00 0.00 0.00 82 1011.5
20260906000110 30 0 0.0 1.6 0.00 0.00 0.00 78 1011.5
20260905234602 31 15 0.0 1.6 0.00 0.00 0.00 76 1011.6
20260905233105 32 15 0.0 1.6 0.00 0.00 0.00 71 1011.6
20260905231616 33 0 0.0 1.6 0.00 0.00 0.00 68 1011.7
20260905230112 34 0 0.0 1.6 0.00 0.00 0.00 65 1011.7
20260905224559 35 15 0.0 1.6 0.00 0.00 0.00 58 1011.6
20260905223106 36 15 0.0 0.0 0.00 0.00 0.00 53 1011.6
20260905221628 36 0 0.0 3.2 0.00 0.00 0.00 50 1011.6
20260905220103 37 0 0.0 3.2 0.00 0.00 0.00 53 1011.7
20260905214603 37 308 0.0 3.2 0.00 0.00 0.00 47 1011.8
20260905213056 37 0 1.6 4.8 0.00 0.00 0.00 48 1011.9
20260905211605 36 15 0.0 6.4 0.00 0.00 0.00 48 1011.9
20260905210111 36 309 0.0 4.8 0.00 0.00 0.00 54 1012.0
20260905204556 36 343 1.6 8.0 0.00 0.00 0.00 50 1012.0
20260905203104 36 331 4.8 9.7 0.00 0.00 0.00 51 1012.2
20260905201607 36 300 1.6 6.4 0.00 0.00 0.00 51 1012.4
20260905200131 36 0 1.6 4.8 0.00 0.00 0.00 50 1012.7
20260905194607 37 313 1.6 4.8 0.00 0.00 0.00 51 1013.1
20260905193104 36 303 1.6 4.8 0.00 0.00 0.00 52 1013.3
20260905191602 35 27 3.2 8.0 0.00 0.00 0.00 54 1013.7
20260905184612 36 0 0.0 4.8 0.00 0.00 0.00 54 1014.0
20260905183107 36 349 3.2 6.4 0.00 0.00 0.00 53 1014.1
20260905181603 36 16 3.2 8.0 0.00 0.00 0.00 54 1014.1
20260905180116 36 21 3.2 9.7 0.00 0.00 0.00 51 1014.3
20260905174602 36 226 1.6 4.8 0.00 0.00 0.00 52 1014.3
20260905173132 36 233 0.0 3.2 0.00 0.00 0.00 58 1014.4
20260905171603 35 323 3.2 4.8 0.00 0.00 0.00 57 1014.6
20260905170105 35 293 1.6 4.8 0.00 0.00 0.00 60 1014.8
20260905164606 35 211 1.6 4.8 0.00 0.00 0.00 58 1014.9
20260905163104 35 13 0.0 4.8 0.00 0.00 0.00 63 1015.1
20260905161603 34 34 3.2 6.4 0.00 0.00 0.00 64 1015.2
20260905154603 33 131 0.0 3.2 0.00 0.00 0.00 65 1015.3
20260905153102 33 285 0.0 3.2 0.00 0.00 0.00 66 1015.5
20260905151604 32 139 1.6 3.2 0.00 0.00 0.00 70 1015.5
20260905150058 31 0 0.0 0.0 0.00 0.00 0.00 76 1015.6
20260905144602 30 209 0.0 1.6 0.00 0.00 0.00 77 1015.6
20260905143105 29 0 0.0 0.0 0.00 0.00 0.00 80 1015.4
20260905141603 28 0 0.0 0.0 0.00 0.00 0.00 84 1015.4
20260905134602 26 0 0.0 1.6 0.00 0.00 0.00 91 1015.5
20260905133100 25 0 0.0 1.6 0.00 0.00 0.00 95 1015.5
20260905131603 24 0 0.0 0.0 0.00 0.00 0.00 96 1015.4
20260905130059 23 0 0.0 0.0 0.00 0.00 0.00 96 1015.4
20260905124559 23 0 0.0 0.0 0.00 0.00 0.00 96 1015.3
20260905123106 23 0 0.0 0.0 0.00 0.00 0.00 95 1015.2
20260905121601 22 0 0.0 0.0 0.00 0.00 0.00 95 1015.1
20260905120108 22 0 0.0 0.0 0.00 0.00 0.00 95 1015.0
20260905114611 22 0 0.0 0.0 0.00 0.00 0.00 95 1014.9
20260905113102 22 0 0.0 0.0 0.00 0.00 0.00 95 1014.7
20260905111652 22 0 0.0 0.0 0.00 0.00 0.00 95 1014.6
20260905110104 22 0 0.0 0.0 0.00 0.00 0.00 95 1014.5
20260905104600 22 0 0.0 0.0 0.00 0.00 0.00 95 1014.2
20260905103104 23 0 0.0 0.0 0.00 0.00 0.00 95 1014.0
20260905101609 23 0 0.0 0.0 0.00 0.00 0.00 95 1014.2
20260905100109 23 0 0.0 0.0 0.00 0.00 0.00 94 1014.2
20260905094608 23 0 0.0 0.0 0.00 0.00 0.00 94 1014.3
20260905093123 23 0 0.0 0.0 0.00 0.00 0.00 94 1014.4
20260905091605 23 0 0.0 0.0 0.00 0.00 0.00 94 1014.4
20260905084605 23 0 0.0 0.0 0.00 0.00 0.00 94 1014.2
20260905083101 23 0 0.0 0.0 0.00 0.00 0.00 94 1014.1
20260905081603 23 0 0.0 0.0 0.00 0.00 0.00 94 1014.2
20260905080059 23 0 0.0 0.0 0.00 0.00 0.00 94 1014.1
20260905074609 23 0 0.0 1.6 0.00 0.00 0.00 94 1014.1
20260905073107 23 0 0.0 1.6 0.00 0.00 0.00 94 1014.1
20260905071605 23 0 0.0 0.0 0.00 0.00 0.00 94 1014.2
20260905064626 23 0 0.0 0.0 0.00 0.00 0.00 93 1014.1
20260905063102 24 0 0.0 0.0 0.00 0.00 0.00 93 1014.1
20260905061604 24 0 0.0 0.0 0.00 0.00 0.00 93 1014.2
20260905060106 24 0 0.0 0.0 0.00 0.00 0.00 93 1014.2
20260905054604 24 0 0.0 0.0 0.00 0.00 0.00 92 1014.2
20260905053100 24 0 0.0 0.0 0.00 0.00 0.00 92 1014.3
20260905051558 25 0 0.0 1.6 0.00 0.00 0.00 91 1014.3
20260905050100 25 0 0.0 0.0 0.00 0.00 0.00 91 1014.5
20260905044611 25 0 0.0 0.0 0.00 0.00 0.00 92 1014.6
20260905043106 25 0 0.0 0.0 0.00 0.00 0.00 91 1014.6
20260905041607 25 0 0.0 0.0 0.00 0.00 0.00 91 1014.7
20260905040105 25 0 0.0 1.6 0.00 0.00 0.00 90 1014.9
20260905034609 25 0 0.0 1.6 0.00 0.00 0.00 90 1014.9
20260905033100 25 0 0.0 1.6 0.00 0.00 0.00 90 1014.7
20260905031558 25 0 0.0 0.0 0.00 0.00 0.00 89 1014.8
20260905030119 25 0 0.0 0.0 0.00 0.00 0.00 89 1014.9
20260905024606 25 0 0.0 1.6 0.00 0.00 0.00 89 1014.7
20260905023101 25 0 0.0 0.0 0.00 0.00 0.00 89 1014.6